Location: Crescent
(42.8242°N, 73.7329°W)
Time: 18:32:30
(UTC+00:00)

Vanguard 1 Rocket - Pass Details

Date: 26 February 2026
Orbit: 653 x 4214 km, 34.3° (Epoch: 8 March)

Event Time Altitude Azimuth Distance (km) Brightness Sun altitude
Rises 21:15:07 0° 273° (W) 4,907 12.3 14.0°
Reaches altitude 10° 21:18:01 10° 266° (W) 4,288 12.4 13.5°
Maximum altitude 21:29:24 41° 202° (SSW) 3,680 11.2 11.6°
Drops below altitude 10° 21:48:48 10° 142° (SE) 7,081 11.8 8.3°
Sets 21:55:31 0° 137° (SE) 8,355 12.0 7.2°
